MRK1274 SCEL-SUMU

Flight info

Callsign MRK1274
Flight time 1h 46m
Altitude 35000
Route ALBAL7C ALBAL UM424 TOKAM
Aircraft B738/M-SDE2E3FGHIRWXY/LB1

Departure

Time 2026-05-08 10:51
Airport Comodoro Arturo Merino Benítez International Airport (SCEL)

Arrival

Time 2026-05-08 12:37
Airport Carrasco General Cesáreo L. Berisso International Airport (SUMU)
Time Latitude Longitude Altitude Speed Heading
2026-05-08 10:02 -33.40527 -70.78924 1571 ft 0 kts 223°
2026-05-08 10:30 -33.40515 -70.78910 1563 ft 4 kts 233°
2026-05-08 10:31 -33.40503 -70.78883 1563 ft 4 kts 262°
2026-05-08 10:31 -33.40506 -70.78855 1563 ft 4 kts 313°
2026-05-08 10:31 -33.40518 -70.78846 1563 ft 0 kts
2026-05-08 10:36 -33.40508 -70.78846 1563 ft 4 kts
2026-05-08 10:36 -33.40480 -70.78847 1563 ft 4 kts 359°
2026-05-08 10:36 -33.40449 -70.78847 1563 ft 5 kts 359°
2026-05-08 10:36 -33.40417 -70.78848 1563 ft 4 kts
2026-05-08 10:37 -33.40386 -70.78848 1563 ft 4 kts 358°
2026-05-08 10:37 -33.40348 -70.78850 1563 ft 8 kts 358°
2026-05-08 10:37 -33.40282 -70.78853 1563 ft 10 kts 358°
2026-05-08 10:37 -33.40214 -70.78856 1563 ft 10 kts 358°
2026-05-08 10:38 -33.40148 -70.78858 1563 ft 9 kts 358°
2026-05-08 10:38 -33.40084 -70.78860 1563 ft 9 kts 358°
2026-05-08 10:38 -33.40015 -70.78864 1563 ft 10 kts 357°
2026-05-08 10:38 -33.39947 -70.78854 1563 ft 10 kts 18°
2026-05-08 10:39 -33.39887 -70.78819 1563 ft 10 kts 27°
2026-05-08 10:39 -33.39829 -70.78783 1563 ft 9 kts 27°
2026-05-08 10:39 -33.39766 -70.78772 1563 ft 9 kts 359°
2026-05-08 10:39 -33.39701 -70.78775 1563 ft 9 kts 358°
2026-05-08 10:40 -33.39637 -70.78778 1564 ft 9 kts 357°
2026-05-08 10:40 -33.39576 -70.78781 1564 ft 9 kts 357°
2026-05-08 10:40 -33.39516 -70.78784 1564 ft 9 kts 357°
2026-05-08 10:40 -33.39456 -70.78788 1564 ft 9 kts 357°
2026-05-08 10:41 -33.39389 -70.78792 1563 ft 9 kts 357°
2026-05-08 10:41 -33.39325 -70.78796 1563 ft 9 kts 357°
2026-05-08 10:41 -33.39262 -70.78799 1563 ft 9 kts 357°
2026-05-08 10:41 -33.39201 -70.78803 1563 ft 9 kts 357°
2026-05-08 10:42 -33.39141 -70.78806 1563 ft 8 kts 358°
2026-05-08 10:42 -33.39083 -70.78809 1563 ft 8 kts 358°
2026-05-08 10:42 -33.39027 -70.78812 1563 ft 8 kts 358°
2026-05-08 10:42 -33.38972 -70.78815 1563 ft 8 kts 358°
2026-05-08 10:43 -33.38920 -70.78817 1563 ft 7 kts 358°
2026-05-08 10:43 -33.38869 -70.78820 1563 ft 7 kts 357°
2026-05-08 10:43 -33.38820 -70.78823 1563 ft 7 kts 357°
2026-05-08 10:43 -33.38772 -70.78825 1563 ft 7 kts 357°
2026-05-08 10:44 -33.38724 -70.78828 1563 ft 7 kts 357°
2026-05-08 10:44 -33.38678 -70.78830 1563 ft 7 kts 357°
2026-05-08 10:44 -33.38633 -70.78833 1563 ft 6 kts 357°
2026-05-08 10:44 -33.38588 -70.78835 1563 ft 7 kts 358°
2026-05-08 10:45 -33.38538 -70.78838 1563 ft 7 kts 358°
2026-05-08 10:45 -33.38488 -70.78840 1563 ft 7 kts 358°
2026-05-08 10:45 -33.38440 -70.78842 1563 ft 7 kts 358°
2026-05-08 10:45 -33.38393 -70.78845 1563 ft 7 kts 358°
2026-05-08 10:46 -33.38341 -70.78847 1563 ft 8 kts 358°
2026-05-08 10:46 -33.38287 -70.78850 1563 ft 8 kts 358°
2026-05-08 10:46 -33.38236 -70.78852 1563 ft 7 kts 358°
2026-05-08 10:46 -33.38186 -70.78855 1563 ft 7 kts 358°
2026-05-08 10:47 -33.38138 -70.78857 1563 ft 7 kts 358°
2026-05-08 10:47 -33.38069 -70.78860 1563 ft 11 kts 358°
2026-05-08 10:47 -33.37996 -70.78864 1564 ft 11 kts 358°
2026-05-08 10:47 -33.37923 -70.78867 1564 ft 10 kts 358°
2026-05-08 10:48 -33.37854 -70.78870 1564 ft 10 kts 358°
2026-05-08 10:48 -33.37786 -70.78873 1563 ft 10 kts 358°
2026-05-08 10:48 -33.37720 -70.78876 1563 ft 9 kts 358°
2026-05-08 10:48 -33.37656 -70.78873 1563 ft 9 kts 20°
2026-05-08 10:49 -33.37625 -70.78811 1563 ft 9 kts 83°
2026-05-08 10:49 -33.37623 -70.78735 1563 ft 9 kts 93°
2026-05-08 10:49 -33.37650 -70.78673 1564 ft 8 kts 155°
2026-05-08 10:49 -33.37660 -70.78671 1564 ft 0 kts 172°
2026-05-08 10:50 -33.37806 -70.78657 1563 ft 56 kts 177°
2026-05-08 10:50 -33.38445 -70.78625 1564 ft 125 kts 177°
2026-05-08 10:50 -33.39506 -70.78567 1579 ft 178 kts 177°
2026-05-08 10:51 -33.40773 -70.78511 2294 ft 175 kts 177°
2026-05-08 10:51 -33.41954 -70.78446 3281 ft 165 kts 176°
2026-05-08 10:51 -33.43115 -70.78372 3988 ft 175 kts 177°
2026-05-08 10:51 -33.44413 -70.78312 4444 ft 198 kts 177°
2026-05-08 10:52 -33.45834 -70.78213 4958 ft 210 kts 176°
2026-05-08 10:52 -33.47377 -70.78099 5155 ft 238 kts 176°
2026-05-08 10:52 -33.49141 -70.77981 5268 ft 271 kts 178°
2026-05-08 10:52 -33.51130 -70.77886 5602 ft 294 kts 178°
2026-05-08 10:53 -33.53158 -70.77797 6769 ft 284 kts 178°
2026-05-08 10:53 -33.55071 -70.77648 8090 ft 269 kts 176°
2026-05-08 10:53 -33.56930 -70.77532 9073 ft 269 kts 178°
2026-05-08 10:53 -33.58841 -70.77437 9696 ft 282 kts 177°
2026-05-08 10:54 -33.60826 -70.77312 10396 ft 289 kts 178°
2026-05-08 10:54 -33.62856 -70.77152 11039 ft 298 kts 178°
2026-05-08 10:54 -33.64965 -70.77039 11540 ft 312 kts 179°
2026-05-08 10:54 -33.67184 -70.76914 11715 ft 335 kts 178°
2026-05-08 10:55 -33.69578 -70.76760 12038 ft 351 kts 178°
2026-05-08 10:55 -33.72039 -70.76599 12736 ft 356 kts 179°
2026-05-08 10:55 -33.74511 -70.76442 13598 ft 356 kts 179°
2026-05-08 10:55 -33.76984 -70.76289 14404 ft 356 kts 180°
2026-05-08 10:56 -33.79460 -70.75991 15068 ft 362 kts 169°
2026-05-08 10:56 -33.81793 -70.74769 15745 ft 373 kts 150°
2026-05-08 10:56 -33.83757 -70.72674 16412 ft 385 kts 134°
2026-05-08 10:56 -33.85144 -70.69854 17044 ft 397 kts 121°
2026-05-08 10:57 -33.86306 -70.66814 17645 ft 403 kts 120°
2026-05-08 10:57 -33.87441 -70.63718 18215 ft 408 kts 119°
2026-05-08 10:57 -33.89761 -70.57450 19385 ft 411 kts 121°
2026-05-08 10:58 -33.90945 -70.54320 20033 ft 411 kts 122°
2026-05-08 10:58 -33.92138 -70.51188 20641 ft 411 kts 123°
2026-05-08 10:58 -33.93335 -70.48052 21163 ft 413 kts 123°
2026-05-08 10:58 -33.94539 -70.44899 21624 ft 416 kts 124°
2026-05-08 10:59 -33.95746 -70.41726 22138 ft 417 kts 124°
2026-05-08 10:59 -33.96952 -70.38550 22725 ft 418 kts 125°
2026-05-08 10:59 -33.98159 -70.35358 23316 ft 419 kts 125°
2026-05-08 10:59 -33.99369 -70.32160 23857 ft 420 kts 126°
2026-05-08 11:00 -34.00585 -70.28949 24275 ft 421 kts 126°
2026-05-08 11:00 -34.01802 -70.25727 24712 ft 423 kts 126°
2026-05-08 11:00 -34.03019 -70.22503 25094 ft 422 kts 126°
2026-05-08 11:00 -34.04227 -70.19296 25543 ft 424 kts 126°
2026-05-08 11:01 -34.05456 -70.16031 26040 ft 425 kts 126°
2026-05-08 11:01 -34.06673 -70.12793 26463 ft 424 kts 126°
2026-05-08 11:01 -34.07889 -70.09558 26794 ft 425 kts 127°
2026-05-08 11:01 -34.09115 -70.06301 27186 ft 427 kts 127°
2026-05-08 11:02 -34.10341 -70.03035 27528 ft 427 kts 127°
2026-05-08 11:02 -34.12789 -69.96496 28223 ft 431 kts 127°
2026-05-08 11:02 -34.14008 -69.93232 28516 ft 433 kts 127°
2026-05-08 11:03 -34.15244 -69.89915 28957 ft 432 kts 127°
2026-05-08 11:03 -34.16460 -69.86636 29611 ft 424 kts 128°
2026-05-08 11:03 -34.17653 -69.83421 30384 ft 416 kts 128°
2026-05-08 11:03 -34.18645 -69.80076 30837 ft 438 kts 117°
2026-05-08 11:04 -34.19190 -69.76400 31077 ft 448 kts 114°
2026-05-08 11:04 -34.19677 -69.72676 31295 ft 450 kts 113°
2026-05-08 11:04 -34.20154 -69.68934 31555 ft 451 kts 113°
2026-05-08 11:04 -34.20635 -69.65198 31844 ft 449 kts 113°
2026-05-08 11:05 -34.21130 -69.61466 32075 ft 450 kts 113°
2026-05-08 11:05 -34.21631 -69.57737 32291 ft 450 kts 113°
2026-05-08 11:05 -34.22143 -69.54004 32532 ft 451 kts 113°
2026-05-08 11:05 -34.22655 -69.50264 32801 ft 451 kts 112°
2026-05-08 11:06 -34.23164 -69.46525 33051 ft 451 kts 112°
2026-05-08 11:06 -34.23672 -69.42790 33317 ft 451 kts 112°
2026-05-08 11:06 -34.24184 -69.39047 33552 ft 452 kts 112°
2026-05-08 11:06 -34.24697 -69.35294 33887 ft 452 kts 111°
2026-05-08 11:07 -34.25202 -69.31548 34200 ft 451 kts 111°
2026-05-08 11:07 -34.25707 -69.27803 34386 ft 452 kts 111°
2026-05-08 11:07 -34.26216 -69.24035 34455 ft 457 kts 111°
2026-05-08 11:07 -34.26728 -69.20238 34569 ft 459 kts 110°
2026-05-08 11:08 -34.27239 -69.16419 34739 ft 460 kts 110°
2026-05-08 11:08 -34.27748 -69.12596 34916 ft 462 kts 110°
2026-05-08 11:08 -34.28261 -69.08746 35035 ft 464 kts 110°
2026-05-08 11:09 -34.29116 -69.02321 35284 ft 467 kts 109°
2026-05-08 11:09 -34.29628 -68.98437 35452 ft 468 kts 109°
2026-05-08 11:09 -34.30140 -68.94542 35567 ft 470 kts 109°
2026-05-08 11:09 -34.30653 -68.90622 35671 ft 473 kts 109°
2026-05-08 11:10 -34.31332 -68.85409 35897 ft 474 kts 108°
2026-05-08 11:10 -34.31676 -68.82748 36016 ft 474 kts 108°
2026-05-08 11:10 -34.32185 -68.78809 36156 ft 475 kts 108°
2026-05-08 11:10 -34.32697 -68.74847 36281 ft 477 kts 107°
2026-05-08 11:11 -34.33209 -68.70875 36400 ft 479 kts 107°
2026-05-08 11:11 -34.33719 -68.66895 36554 ft 479 kts 107°
2026-05-08 11:11 -34.34229 -68.62910 36707 ft 480 kts 107°
2026-05-08 11:11 -34.34739 -68.58915 36864 ft 480 kts 106°
2026-05-08 11:12 -34.35247 -68.54922 37021 ft 480 kts 106°
2026-05-08 11:12 -34.36267 -68.46898 37078 ft 485 kts 105°
2026-05-08 11:13 -34.37282 -68.38865 37090 ft 488 kts 105°
2026-05-08 11:13 -34.38306 -68.30711 37086 ft 491 kts 105°
2026-05-08 11:14 -34.39327 -68.22522 37094 ft 492 kts 104°
2026-05-08 11:14 -34.39833 -68.18420 36929 ft 494 kts 109°
2026-05-08 11:14 -34.40339 -68.14300 37020 ft 495 kts 108°
2026-05-08 11:15 -34.41367 -68.06024 37118 ft 499 kts 108°
2026-05-08 11:15 -34.42396 -67.97672 37135 ft 504 kts 108°
2026-05-08 11:16 -34.43421 -67.89251 37136 ft 507 kts 107°
2026-05-08 11:16 -34.44431 -67.80906 37142 ft 509 kts 107°
2026-05-08 11:17 -34.45438 -67.72407 37140 ft 510 kts 106°
2026-05-08 11:17 -34.46421 -67.63894 37137 ft 511 kts 106°
2026-05-08 11:18 -34.47398 -67.55368 37136 ft 511 kts 106°
2026-05-08 11:18 -34.48208 -67.48286 37133 ft 510 kts 105°
2026-05-08 11:19 -34.49018 -67.41172 37135 ft 510 kts 105°
2026-05-08 11:19 -34.49982 -67.32657 37138 ft 510 kts 105°
2026-05-08 11:20 -34.50938 -67.24150 37136 ft 510 kts 105°
2026-05-08 11:20 -34.51891 -67.15634 37130 ft 509 kts 105°
2026-05-08 11:21 -34.52843 -67.07122 37132 ft 509 kts 104°
2026-05-08 11:21 -34.53782 -66.98668 37131 ft 509 kts 104°
2026-05-08 11:22 -34.54720 -66.90156 37128 ft 509 kts 104°
2026-05-08 11:22 -34.55650 -66.81640 37126 ft 509 kts 104°
2026-05-08 11:23 -34.56574 -66.73132 37120 ft 509 kts 103°
2026-05-08 11:23 -34.57494 -66.64611 37118 ft 509 kts 103°
2026-05-08 11:24 -34.58407 -66.56087 37114 ft 509 kts 103°
2026-05-08 11:24 -34.59315 -66.47559 37114 ft 510 kts 103°
2026-05-08 11:25 -34.60217 -66.39023 37107 ft 510 kts 103°
2026-05-08 11:25 -34.61112 -66.30499 37101 ft 510 kts 102°
2026-05-08 11:26 -34.62003 -66.21958 37097 ft 510 kts 102°
2026-05-08 11:26 -34.62886 -66.13426 37092 ft 510 kts 102°
2026-05-08 11:27 -34.63765 -66.04879 37090 ft 510 kts 102°
2026-05-08 11:27 -34.64638 -65.96331 37094 ft 510 kts 102°
2026-05-08 11:28 -34.65506 -65.87773 37088 ft 511 kts 102°
2026-05-08 11:28 -34.66361 -65.79276 37089 ft 511 kts 101°
2026-05-08 11:29 -34.67217 -65.70710 37083 ft 511 kts 101°
2026-05-08 11:29 -34.68066 -65.62147 37084 ft 510 kts 101°
2026-05-08 11:30 -34.68909 -65.53579 37074 ft 510 kts 101°
2026-05-08 11:30 -34.69744 -65.45024 37068 ft 510 kts 101°
2026-05-08 11:31 -34.70577 -65.36463 37065 ft 510 kts 101°
2026-05-08 11:31 -34.71403 -65.27908 37065 ft 510 kts 101°
2026-05-08 11:32 -34.72221 -65.19355 37064 ft 509 kts 100°
2026-05-08 11:32 -34.73032 -65.10803 37063 ft 509 kts 100°
2026-05-08 11:33 -34.73835 -65.02264 37059 ft 509 kts 100°
2026-05-08 11:33 -34.74633 -64.93717 37056 ft 508 kts 100°
2026-05-08 11:34 -34.75424 -64.85179 37055 ft 508 kts 99°
2026-05-08 11:34 -34.76207 -64.76646 37051 ft 508 kts 99°
2026-05-08 11:35 -34.76985 -64.68111 37045 ft 507 kts 99°
2026-05-08 11:35 -34.77759 -64.59582 37038 ft 507 kts 99°
2026-05-08 11:36 -34.78532 -64.51052 37036 ft 507 kts 99°
2026-05-08 11:36 -34.79297 -64.42528 37032 ft 507 kts 99°
2026-05-08 11:37 -34.80055 -64.33991 37023 ft 507 kts 98°
2026-05-08 11:37 -34.80806 -64.25458 37023 ft 507 kts 98°
2026-05-08 11:38 -34.81552 -64.16919 37024 ft 508 kts 98°
2026-05-08 11:38 -34.82290 -64.08379 37016 ft 508 kts 98°
2026-05-08 11:39 -34.83025 -63.99826 37013 ft 508 kts 98°
2026-05-08 11:39 -34.83762 -63.91275 37003 ft 508 kts 98°
2026-05-08 11:40 -34.84501 -63.82720 37012 ft 508 kts 98°
2026-05-08 11:40 -34.85231 -63.74163 36994 ft 508 kts 98°
2026-05-08 11:41 -34.85947 -63.65664 36988 ft 508 kts 98°
2026-05-08 11:41 -34.86662 -63.57111 36985 ft 508 kts 97°
2026-05-08 11:42 -34.87373 -63.48555 36980 ft 508 kts 97°
2026-05-08 11:42 -34.88080 -63.40001 36982 ft 508 kts 97°
2026-05-08 11:43 -34.88780 -63.31441 36979 ft 508 kts 97°
2026-05-08 11:43 -34.89471 -63.22890 36974 ft 508 kts 97°
2026-05-08 11:44 -34.90158 -63.14319 36971 ft 508 kts 97°
2026-05-08 11:44 -34.90837 -63.05763 36961 ft 508 kts 97°
2026-05-08 11:45 -34.91512 -62.97186 36959 ft 508 kts 97°
2026-05-08 11:45 -34.92179 -62.88617 36958 ft 509 kts 97°
2026-05-08 11:46 -34.92841 -62.80037 36952 ft 509 kts 97°
2026-05-08 11:46 -34.93498 -62.71443 36948 ft 509 kts 97°
2026-05-08 11:47 -34.94152 -62.62848 36945 ft 509 kts 97°
2026-05-08 11:47 -34.94810 -62.54244 36938 ft 510 kts 97°
2026-05-08 11:48 -34.95462 -62.45643 36936 ft 510 kts 96°
2026-05-08 11:48 -34.96105 -62.37022 36928 ft 511 kts 96°
2026-05-08 11:49 -34.96727 -62.28464 36927 ft 511 kts 95°
2026-05-08 11:49 -34.97058 -62.19801 36925 ft 512 kts 92°
2026-05-08 11:50 -34.97265 -62.11120 36918 ft 512 kts 92°
2026-05-08 11:50 -34.97503 -62.02443 36916 ft 512 kts 93°
2026-05-08 11:51 -34.97768 -61.93770 36910 ft 512 kts 93°
2026-05-08 11:51 -34.98034 -61.85079 36911 ft 513 kts 93°
2026-05-08 11:52 -34.98289 -61.76393 36904 ft 513 kts 93°
2026-05-08 11:52 -34.98537 -61.67695 36896 ft 513 kts 92°
2026-05-08 11:53 -34.98779 -61.59003 36893 ft 513 kts 92°
2026-05-08 11:53 -34.99017 -61.50301 36889 ft 513 kts 92°
2026-05-08 11:54 -34.99251 -61.41603 36885 ft 513 kts 92°
2026-05-08 11:54 -34.99476 -61.32896 36880 ft 514 kts 92°
2026-05-08 11:55 -34.99694 -61.24188 36875 ft 514 kts 92°
2026-05-08 11:55 -34.99906 -61.15480 36866 ft 514 kts 92°
2026-05-08 11:56 -35.00111 -61.06764 36866 ft 514 kts 92°
2026-05-08 11:56 -35.00311 -60.98045 36861 ft 514 kts 92°
2026-05-08 11:57 -35.00504 -60.89331 36855 ft 515 kts 92°
2026-05-08 11:57 -35.00691 -60.80600 36846 ft 515 kts 92°
2026-05-08 11:58 -35.00871 -60.71931 36835 ft 515 kts 92°
2026-05-08 11:58 -35.01046 -60.63206 36825 ft 515 kts 92°
2026-05-08 11:59 -35.01270 -60.51517 36815 ft 515 kts 92°
2026-05-08 11:59 -35.01430 -60.42778 36807 ft 515 kts 91°
2026-05-08 12:00 -35.01584 -60.34039 36796 ft 515 kts 91°
2026-05-08 12:00 -35.01732 -60.25297 36789 ft 516 kts 91°
2026-05-08 12:01 -35.01872 -60.16606 36781 ft 516 kts 91°
2026-05-08 12:01 -35.02007 -60.07866 36772 ft 516 kts 91°
2026-05-08 12:02 -35.02136 -59.99108 36767 ft 516 kts 91°
2026-05-08 12:02 -35.02258 -59.90355 36757 ft 516 kts 91°
2026-05-08 12:03 -35.02374 -59.81602 36746 ft 516 kts 91°
2026-05-08 12:03 -35.02483 -59.72851 36737 ft 516 kts 91°
2026-05-08 12:04 -35.02556 -59.64087 36730 ft 516 kts 88°
2026-05-08 12:04 -35.01491 -59.55468 36735 ft 514 kts 76°
2026-05-08 12:05 -34.99859 -59.46962 36717 ft 515 kts 75°
2026-05-08 12:05 -34.98235 -59.38460 36712 ft 515 kts 76°
2026-05-08 12:06 -34.96663 -59.29956 36706 ft 515 kts 76°
2026-05-08 12:06 -34.95103 -59.21425 36707 ft 515 kts 76°
2026-05-08 12:07 -34.93548 -59.12964 36691 ft 515 kts 76°
2026-05-08 12:07 -34.91973 -59.04449 36692 ft 515 kts 76°
2026-05-08 12:08 -34.90393 -58.95949 36686 ft 515 kts 75°
2026-05-08 12:08 -34.88806 -58.87448 36692 ft 514 kts 75°
2026-05-08 12:09 -34.87216 -58.78964 36681 ft 514 kts 75°
2026-05-08 12:09 -34.85623 -58.70501 36675 ft 510 kts 75°
2026-05-08 12:10 -34.84043 -58.62144 36685 ft 505 kts 75°
2026-05-08 12:10 -34.83253 -58.57976 36487 ft 507 kts 75°
2026-05-08 12:10 -34.82462 -58.53775 35867 ft 506 kts 76°
2026-05-08 12:11 -34.81862 -58.49597 35254 ft 498 kts 80°
2026-05-08 12:11 -34.81416 -58.45423 34616 ft 497 kts 81°
2026-05-08 12:11 -34.81028 -58.41245 33915 ft 500 kts 82°
2026-05-08 12:11 -34.80647 -58.37025 33123 ft 502 kts 82°
2026-05-08 12:12 -34.80253 -58.32811 32337 ft 502 kts 82°
2026-05-08 12:12 -34.79841 -58.28588 31570 ft 503 kts 81°
2026-05-08 12:12 -34.79414 -58.24364 30799 ft 503 kts 81°
2026-05-08 12:12 -34.78975 -58.20135 30013 ft 504 kts 81°
2026-05-08 12:13 -34.78529 -58.15900 29072 ft 505 kts 81°
2026-05-08 12:13 -34.78080 -58.11653 28116 ft 506 kts 81°
2026-05-08 12:13 -34.77631 -58.07423 27314 ft 504 kts 82°
2026-05-08 12:13 -34.77187 -58.03231 26706 ft 497 kts 82°
2026-05-08 12:14 -34.76746 -57.99082 26063 ft 492 kts 82°
2026-05-08 12:14 -34.76309 -57.94982 25446 ft 487 kts 82°
2026-05-08 12:14 -34.75879 -57.90959 24847 ft 483 kts 82°
2026-05-08 12:14 -34.75441 -57.86880 24243 ft 479 kts 82°
2026-05-08 12:15 -34.75009 -57.82871 23631 ft 476 kts 82°
2026-05-08 12:15 -34.74585 -57.78946 22974 ft 474 kts 82°
2026-05-08 12:15 -34.74157 -57.74994 22303 ft 470 kts 82°
2026-05-08 12:15 -34.73730 -57.71073 21671 ft 465 kts 82°
2026-05-08 12:16 -34.73308 -57.67203 21088 ft 460 kts 82°
2026-05-08 12:16 -34.72888 -57.63364 20482 ft 455 kts 82°
2026-05-08 12:16 -34.72472 -57.59577 19894 ft 451 kts 82°
2026-05-08 12:16 -34.72059 -57.55818 19308 ft 447 kts 82°
2026-05-08 12:17 -34.71651 -57.52091 18731 ft 443 kts 83°
2026-05-08 12:17 -34.71382 -57.48345 18357 ft 435 kts 86°
2026-05-08 12:17 -34.71233 -57.44699 18000 ft 429 kts 88°
2026-05-08 12:17 -34.71127 -57.41099 17589 ft 423 kts 88°
2026-05-08 12:18 -34.71028 -57.37550 17201 ft 421 kts 88°
2026-05-08 12:18 -34.70923 -57.34000 16861 ft 432 kts 88°
2026-05-08 12:18 -34.70804 -57.30328 16485 ft 438 kts 88°
2026-05-08 12:18 -34.70675 -57.26626 16104 ft 434 kts 88°
2026-05-08 12:19 -34.70539 -57.22976 15747 ft 431 kts 88°
2026-05-08 12:19 -34.70399 -57.19343 15390 ft 428 kts 88°
2026-05-08 12:19 -34.70259 -57.15752 15034 ft 423 kts 89°
2026-05-08 12:19 -34.70119 -57.12202 14693 ft 421 kts 89°
2026-05-08 12:20 -34.69975 -57.08653 14347 ft 421 kts 89°
2026-05-08 12:20 -34.69832 -57.05101 13996 ft 420 kts 89°
2026-05-08 12:20 -34.69692 -57.01581 13648 ft 415 kts 89°
2026-05-08 12:20 -34.69550 -56.98109 13286 ft 409 kts 90°
2026-05-08 12:21 -34.69410 -56.94671 12906 ft 407 kts 90°
2026-05-08 12:21 -34.69270 -56.91246 12560 ft 405 kts 89°
2026-05-08 12:21 -34.69129 -56.87831 12195 ft 404 kts 89°
2026-05-08 12:21 -34.68989 -56.84421 11859 ft 405 kts 89°
2026-05-08 12:22 -34.68847 -56.81026 11517 ft 399 kts 89°
2026-05-08 12:22 -34.68708 -56.77760 11174 ft 382 kts 89°
2026-05-08 12:22 -34.68572 -56.74616 10855 ft 364 kts 89°
2026-05-08 12:22 -34.68442 -56.71619 10557 ft 348 kts 89°
2026-05-08 12:23 -34.68318 -56.68748 10276 ft 334 kts 89°
2026-05-08 12:23 -34.68198 -56.65986 9996 ft 321 kts 89°
2026-05-08 12:23 -34.68083 -56.63319 9729 ft 310 kts 89°
2026-05-08 12:23 -34.67971 -56.60746 9461 ft 301 kts 89°
2026-05-08 12:24 -34.67861 -56.58229 9214 ft 298 kts 89°
2026-05-08 12:24 -34.67752 -56.55720 8962 ft 297 kts 89°
2026-05-08 12:24 -34.67642 -56.53209 8708 ft 298 kts 89°
2026-05-08 12:24 -34.67531 -56.50687 8454 ft 300 kts 89°
2026-05-08 12:25 -34.67419 -56.48161 8197 ft 299 kts 89°
2026-05-08 12:25 -34.67308 -56.45671 7943 ft 299 kts 89°
2026-05-08 12:25 -34.67193 -56.43124 7684 ft 298 kts 89°
2026-05-08 12:25 -34.67080 -56.40618 7432 ft 296 kts 89°
2026-05-08 12:26 -34.66968 -56.38163 7201 ft 295 kts 88°
2026-05-08 12:26 -34.66855 -56.35679 6936 ft 294 kts 89°
2026-05-08 12:26 -34.66741 -56.33205 6689 ft 292 kts 89°
2026-05-08 12:26 -34.66628 -56.30750 6443 ft 290 kts 88°
2026-05-08 12:27 -34.66515 -56.28313 6217 ft 288 kts 88°
2026-05-08 12:27 -34.66403 -56.25892 5961 ft 286 kts 88°
2026-05-08 12:27 -34.66291 -56.23481 5702 ft 285 kts 88°
2026-05-08 12:27 -34.66178 -56.21087 5462 ft 283 kts 89°
2026-05-08 12:28 -34.66066 -56.18704 5212 ft 281 kts 88°
2026-05-08 12:28 -34.65954 -56.16343 4984 ft 280 kts 88°
2026-05-08 12:28 -34.65842 -56.13987 4738 ft 281 kts 88°
2026-05-08 12:28 -34.65729 -56.11609 4521 ft 283 kts 89°
2026-05-08 12:29 -34.65614 -56.09209 4262 ft 285 kts 88°
2026-05-08 12:29 -34.65499 -56.06813 4022 ft 284 kts 88°
2026-05-08 12:29 -34.65383 -56.04420 3771 ft 283 kts 88°
2026-05-08 12:29 -34.65267 -56.02036 3531 ft 282 kts 88°
2026-05-08 12:30 -34.65152 -55.99661 3292 ft 281 kts 87°
2026-05-08 12:30 -34.65037 -55.97303 3088 ft 280 kts 86°
2026-05-08 12:30 -34.64926 -55.94930 3028 ft 278 kts 90°
2026-05-08 12:30 -34.65263 -55.92755 2993 ft 248 kts 120°
2026-05-08 12:31 -34.66165 -55.91122 2969 ft 220 kts 142°
2026-05-08 12:31 -34.67299 -55.89968 2987 ft 209 kts 152°
2026-05-08 12:31 -34.68476 -55.88921 2997 ft 211 kts 152°
2026-05-08 12:31 -34.69687 -55.87856 3003 ft 218 kts 152°
2026-05-08 12:32 -34.70909 -55.86781 2993 ft 214 kts 155°
2026-05-08 12:32 -34.72213 -55.86304 2983 ft 182 kts 198°
2026-05-08 12:32 -34.73211 -55.86949 3001 ft 157 kts 227°
2026-05-08 12:32 -34.74104 -55.87754 2899 ft 158 kts 226°
2026-05-08 12:33 -34.74873 -55.88666 2713 ft 152 kts 232°
2026-05-08 12:33 -34.75581 -55.89590 2504 ft 145 kts 235°
2026-05-08 12:33 -34.76194 -55.90507 2321 ft 135 kts 238°
2026-05-08 12:33 -34.76761 -55.91417 2136 ft 136 kts 239°
2026-05-08 12:34 -34.77325 -55.92341 1955 ft 138 kts 240°
2026-05-08 12:34 -34.77893 -55.93279 1794 ft 134 kts 240°
2026-05-08 12:34 -34.78432 -55.94166 1586 ft 127 kts 240°
2026-05-08 12:34 -34.78957 -55.95034 1415 ft 128 kts 240°
2026-05-08 12:35 -34.79486 -55.95906 1235 ft 129 kts 240°
2026-05-08 12:35 -34.80018 -55.96788 1055 ft 129 kts 238°
2026-05-08 12:35 -34.80554 -55.97672 849 ft 130 kts 239°
2026-05-08 12:35 -34.81098 -55.98569 700 ft 135 kts 239°
2026-05-08 12:36 -34.81662 -55.99498 515 ft 139 kts 239°
2026-05-08 12:36 -34.82245 -56.00461 345 ft 144 kts 238°
2026-05-08 12:36 -34.82834 -56.01430 150 ft 140 kts 241°
2026-05-08 12:36 -34.83371 -56.02335 86 ft 120 kts 240°
2026-05-08 12:37 -34.83760 -56.02960 73 ft 65 kts 232°
2026-05-08 12:37 -34.83917 -56.03215 69 ft 10 kts 231°
2026-05-08 12:37 -34.83951 -56.03272 66 ft 9 kts 234°
2026-05-08 12:37 -34.83996 -56.03346 73 ft 14 kts 234°
2026-05-08 12:38 -34.84052 -56.03439 68 ft 13 kts 233°
2026-05-08 12:38 -34.84107 -56.03527 65 ft 13 kts 235°
2026-05-08 12:38 -34.84159 -56.03614 66 ft 13 kts 233°
2026-05-08 12:38 -34.84225 -56.03656 63 ft 7 kts 162°
2026-05-08 12:39 -34.84240 -56.03608 67 ft 7 kts 77°
2026-05-08 12:39 -34.84221 -56.03557 67 ft 7 kts 65°
2026-05-08 12:39 -34.84193 -56.03491 72 ft 13 kts 58°
2026-05-08 12:39 -34.84153 -56.03400 65 ft 12 kts 61°
2026-05-08 12:40 -34.84114 -56.03308 73 ft 12 kts 62°
2026-05-08 12:40 -34.84075 -56.03220 68 ft 12 kts 63°
2026-05-08 12:40 -34.84037 -56.03134 69 ft 11 kts 63°
2026-05-08 12:40 -34.84011 -56.03045 72 ft 11 kts 83°
2026-05-08 12:41 -34.84011 -56.02952 63 ft 11 kts 92°
2026-05-08 12:41 -34.84013 -56.02832 61 ft 16 kts 86°
2026-05-08 12:41 -34.83969 -56.02711 55 ft 16 kts 60°
2026-05-08 12:41 -34.83947 -56.02586 61 ft 15 kts 89°
2026-05-08 12:42 -34.83946 -56.02480 60 ft 6 kts 77°
2026-05-08 12:42 -34.83937 -56.02468 54 ft 3 kts 40°
2026-05-08 12:42 -34.83916 -56.02461 60 ft 3 kts
2026-05-08 12:42 -34.83895 -56.02460 53 ft 3 kts 360°
2026-05-08 12:43 -34.83876 -56.02460 58 ft 2 kts
2026-05-08 12:43 -34.83873 -56.02460 58 ft 0 kts